Simultaneous Nadir Overpasses (SNOs) Predictions

Prediction of SNOs between LANDSAT-8 and NOAA-19 Satellite Orbit:

Table of predicted SNOs for the next 14.0 days since TLE Epoch: 6/6/2020
Index Date (LANDSAT-8) Time (LANDSAT-8) Lat,Lon (LANDSAT-8) SZA (LANDSAT-8 ) Date (NOAA-19) Time (NOAA-19) Lat,Lon (NOAA-19) SZA (NOAA-19 ) Distance(km) Time Diff (sec)
1 06/06/2020 20:11:54 79.74, -97.39 58.05 06/06/2020 20:11:05 79.74, -97.38 58.03 0.30 49
2 06/06/2020 21:01:21 -79.74, 70.25 121.96 06/06/2020 21:02:02 -79.71, 70.19 121.98 3.66 41
3 06/09/2020 01:45:35 -79.95, 0.78 121.85 06/09/2020 01:44:32 -80.02, -3.99 122.18 92.49 63
4 06/09/2020 02:35:07 79.74, 166.76 57.83 06/09/2020 02:35:22 79.72, 166.88 57.83 2.96 15
5 06/11/2020 08:08:54 -79.74, -96.67 122.34 06/11/2020 08:08:39 -79.73, -96.52 122.34 2.98 15
6 06/13/2020 13:42:40 79.75, -0.05 57.54 06/13/2020 13:41:58 79.75, 0.06 57.53 2.22 42
7 06/13/2020 14:32:07 -79.75, 167.64 122.46 06/13/2020 14:32:57 -79.72, 167.59 122.47 3.17 50
8 06/15/2020 19:16:27 -79.77, 96.69 122.54 06/15/2020 19:15:16 -79.76, 96.71 122.57 1.18 71
9 06/15/2020 20:05:54 79.73, -95.96 57.41 06/15/2020 20:06:16 79.76, -96.03 57.44 3.45 22
10 06/18/2020 01:39:41 -79.77, 0.86 122.61 06/18/2020 01:39:34 -79.75, 0.79 122.63 1.83 7




NCC Satellite Simultaneous Nadir Overpasses (SNOs) Prediction Service
